Search for airport 
image banner adimage banner ad
image banner ad

EKVG - Vagar

Located in All Faeroe Islands, Faroe Islands

ICAO - EKVG, IATA - FAE

Data provided by Airmate  

General information

Coordinates: N62°3'49" W7°16'38"
Elevation is 280 feet MSL.
Magnetic variation is -6.8° East
View others Airports in (unassigned)

Operational data

Open for public use
Current time UTC:
Current local time:
Weather
METAR: EKVG 240020Z AUTO 00000KT 9999 -RA OVC013/// 01/00 Q0988 REFZDZ
TAF: TAF EKVG 231421Z 2315/2321 29007KT 9999 SCT020 BKN030
View NOTAMs / SUP AIP / TFR affecting this airport [VIEW]
Communications frequencies: [VIEW]

Runways:

RWY identifierQFULength (ft)Width (ft)SurfaceLDA (ft)
12118°590298ASPH5902
30298°590298ASPH5902

Airport contact information

Address: All Faeroe Islands Faroe Islands

Satellite view of EKVG